Theta_e
300 300 300 299 299 299 299 299 299 299 299 298 298 298 299 298 298 303 300 300 301 300 299 299 298 298 299 301 302 303 302 301 301 303 302 302 303 304 304 304 305 305 305 306 309
300 300 300 299 299 299 299 299 299 299 299 298 298 298 299 298 301 301 300 299 298 298 299 298 298 299 298 300 302 301 300 299 299 301 302 302 302 303 303 303 303 303 305 308 308
300 300 300 299 299 299 299 299 299 299 299 298 298 299 298 298 303 300 298 298 298 299 299 299 299 299 301 301 301 301 301 299 301 302 302 302 301 301 302 302 302 302 304 304 303
299 299 299 299 299 299 299 299 299 299 299 299 298 298 298 299 298 299 298 298 298 300 299 300 300 299 300 300 300 301 300 301 301 301 300 300 300 300 301 301 300 300 299 299 303
299 299 299 299 299 299 299 299 299 299 299 299 299 298 299 299 299 299 298 298 298 299 299 299 301 300 300 300 300 300 300 300 300 300 300 300 300 300 300 299 299 299 299 299 299
299 299 299 299 299 299 299 299 299 299 299 299 298 299 299 299 299 298 298 298 298 299 298 299 299 300 300 299 299 299 299 300 300 300 300 300 300 299 299 299 299 299 299 299 300
299 299 299 299 299 299 299 299 299 299 299 299 299 299 299 299 298 297 297 298 298 298 299 299 299 300 300 299 300 300 300 300 300 299 299 299 299 299 299 299 299 299 299 299 300
299 299 299 299 299 299 299 299 299 299 300 299 300 299 299 299 298 297 298 298 297 298 298 298 299 299 300 300 300 300 299 300 299 299 299 298 300 299 299 299 299 300 300 300 301
299 299 299 299 299 299 299 299 299 300 299 299 299 299 299 298 298 297 297 297 296 298 298 298 299 299 299 300 300 300 300 300 300 299 299 299 301 299 300 299 298 300 300 300 301
299 299 299 299 299 299 299 299 299 299 299 299 299 299 299 298 297 297 298 297 297 298 298 299 299 299 299 300 299 300 300 300 300 299 299 300 300 300 300 300 300 300 300 300 300
299 299 299 299 299 299 298 299 300 299 299 298 299 298 298 298 297 296 297 296 297 298 297 297 298 299 299 300 300 299 300 300 299 299 300 300 300 300 300 300 300 300 300 300 300
299 299 298 298 299 298 298 298 298 299 299 299 298 298 297 296 296 297 297 296 296 296 296 297 298 298 298 298 298 299 299 300 300 299 300 300 300 299 299 300 300 300 300 300 299
299 299 298 298 299 297 296 297 299 299 298 298 297 297 296 296 296 296 296 295 296 296 296 297 298 297 297 298 299 299 300 300 301 300 300 300 300 300 299 299 299 300 300 299 299
299 299 299 298 298 297 296 297 299 299 292 297 296 296 296 297 296 297 296 295 296 296 296 296 297 297 297 298 298 296 299 300 301 301 301 300 301 299 298 297 295 294 296 297 298
299 299 298 298 297 296 296 297 299 298 295 296 295 296 296 297 296 296 296 295 296 296 293 295 296 297 294 298 297 295 297 299 299 300 301 300 301 300 297 295 293 292 292 293 295
299 299 298 298 298 296 296 299 298 295 294 296 295 294 294 295 295 295 295 295 295 294 296 295 295 296 296 297 297 297 296 297 299 301 301 301 301 298 294 293 292 290 290 291 293
299 299 299 298 298 296 296 297 296 294 294 295 294 294 294 295 295 294 294 294 295 291 295 293 295 295 296 295 297 295 294 292 295 299 302 303 303 296 292 290 290 289 289 290 294
300 299 299 298 297 297 297 295 293 285 285 292 294 293 293 294 295 293 293 293 294 295 293 290 292 295 295 295 296 294 295 296 294 300 299 299 301 297 290 289 287 287 296 296 297
299 299 298 299 297 297 297 293 291 287 292 294 293 289 289 292 293 293 292 293 294 296 294 291 289 295 295 297 293 292 293 292 293 296 298 301 293 294 288 287 286 286 297 297 298
300 299 298 298 297 297 295 293 286 291 294 291 291 289 289 290 292 292 293 293 295 295 294 292 291 294 296 295 294 293 291 291 294 295 296 298 290 287 285 285 283 286 300 301 301
300 298 298 297 297 297 293 284 287 292 293 291 287 290 289 291 292 291 294 295 294 294 294 295 291 293 295 295 294 292 290 291 291 295 294 294 290 286 284 283 282 287 297 297 298
298 296 298 297 297 284 287 283 293 293 294 295 293 292 287 288 287 292 295 294 294 294 295 295 290 290 288 293 295 293 289 289 284 289 289 293 291 285 283 281 282 285 292 294 294
298 298 297 297 293 285 285 291 294 294 294 294 294 294 286 287 288 288 293 294 294 294 296 292 293 289 292 295 294 294 290 287 289 288 288 288 289 285 281 280 280 282 288 290 292
298 295 296 296 293 291 289 288 289 293 293 294 295 294 286 284 288 287 293 294 293 295 295 293 291 295 296 296 294 293 291 288 286 282 286 286 284 283 280 279 279 280 283 287 288
297 293 293 292 292 293 291 291 292 291 293 294 293 288 288 286 283 283 290 293 293 293 292 292 288 287 289 289 294 293 291 288 286 285 286 285 283 282 280 278 278 278 280 283 284
298 295 293 291 293 294 295 292 294 293 293 291 288 286 286 287 290 287 292 292 293 293 293 290 290 286 286 286 290 294 292 290 287 285 286 285 284 282 279 277 276 276 278 279 280
298 297 296 292 292 291 293 293 293 293 293 293 292 290 286 289 291 292 292 291 291 292 293 292 291 290 291 292 292 296 292 290 288 285 283 282 282 282 280 277 276 276 276 277 279
Wind_Speed
10 11 12 15 17 18 19 21 22 22 24 23 21 19 15 14 7 3 4 7 9 12 13 12 8 10 11 4 4 1 0 4 5 3 5 2 6 7 8 11 10 14 22 25 18
10 12 14 16 17 19 20 23 22 25 24 25 21 15 13 12 4 4 6 9 10 13 12 11 11 10 7 4 3 4 3 7 5 3 4 7 6 7 8 14 16 27 22 11 18
11 13 16 17 18 20 22 24 23 27 28 23 17 11 16 4 5 3 8 12 12 12 11 9 8 7 4 4 5 4 5 4 4 8 9 4 9 13 6 15 20 20 26 27 34
12 14 16 16 19 21 24 24 26 28 25 19 12 15 8 3 1 4 10 16 16 12 13 11 6 6 3 4 5 4 10 11 5 10 9 5 10 6 18 32 23 30 34 32 23
12 14 16 18 20 23 25 24 28 30 20 14 12 12 2 4 4 9 13 21 14 15 15 10 10 7 3 4 5 7 9 15 17 21 17 21 21 17 33 23 30 34 35 38 31
13 15 17 19 21 24 25 25 29 24 17 10 13 7 1 3 6 17 20 18 13 11 9 8 7 8 11 8 7 5 5 10 17 23 19 18 26 10 22 25 32 28 33 33 24
14 16 19 21 23 25 25 27 28 18 10 12 10 10 5 4 9 25 16 14 10 9 15 15 12 11 4 5 17 11 10 10 16 23 9 17 10 10 31 28 31 32 29 31 26
15 17 20 22 25 26 23 28 22 16 8 9 10 5 4 9 14 21 14 14 15 17 12 10 10 12 12 9 6 6 4 4 3 4 9 8 21 14 20 22 25 26 24 20 22
15 18 21 24 26 27 24 28 16 11 10 4 11 3 3 12 24 16 15 25 25 5 12 11 7 5 1 2 3 4 6 8 14 8 8 7 16 4 13 12 17 20 27 29 32
15 18 21 24 27 27 28 23 14 4 7 4 10 3 8 17 27 15 14 32 14 12 6 2 1 1 0 1 4 10 15 15 17 4 12 19 23 20 26 26 24 26 31 32 31
15 18 22 25 27 24 30 14 12 2 7 6 5 2 11 22 19 17 22 25 6 4 2 2 2 5 6 6 13 13 13 19 24 18 14 18 20 22 20 27 28 29 29 28 34
15 18 21 25 26 22 26 17 10 6 4 3 7 8 15 20 9 23 26 12 6 4 3 2 4 2 5 8 11 14 16 20 16 4 10 13 21 21 18 17 28 26 25 26 27
14 17 20 24 20 24 25 23 12 5 2 4 5 6 13 15 5 21 27 16 3 5 6 4 5 7 9 11 10 16 11 14 17 17 10 11 11 4 6 7 14 13 18 24 26
14 17 20 23 11 23 20 21 9 4 4 6 6 7 19 14 3 12 22 7 4 4 6 5 3 9 11 5 9 8 5 13 19 15 3 6 5 4 8 11 15 20 20 19 17
14 17 20 21 15 21 21 16 4 2 5 9 5 7 22 8 12 7 19 8 5 8 4 5 7 9 4 10 13 10 17 21 19 16 10 3 4 4 8 16 23 21 27 24 20
13 16 19 20 14 21 21 11 3 6 4 7 5 9 10 9 8 12 10 17 6 4 2 5 8 0 3 11 11 13 11 20 2 3 2 1 6 3 9 16 23 20 29 28 22
13 15 18 17 15 21 19 5 6 7 5 10 6 7 6 6 6 7 6 7 9 8 12 8 4 5 4 11 8 20 15 4 5 3 2 4 4 6 18 23 19 24 36 34 18
13 15 17 11 17 17 12 5 10 3 5 4 6 8 6 8 3 8 8 6 5 4 5 4 8 7 6 2 9 13 7 4 4 3 5 10 3 1 26 28 28 41 26 12 10
12 15 11 9 17 13 4 6 7 6 3 7 5 6 6 5 1 8 6 6 4 7 5 5 6 4 6 3 7 9 12 10 4 5 3 3 7 3 31 34 35 44 23 20 21
13 13 3 12 13 7 5 2 3 2 1 3 3 3 4 6 8 9 6 3 8 8 7 3 6 3 5 7 5 10 11 4 4 5 4 5 6 9 28 27 33 31 24 27 28
11 5 4 13 8 3 4 5 4 2 2 3 3 3 4 3 2 4 6 5 4 7 7 3 2 8 4 6 15 13 10 3 2 3 3 5 2 10 17 21 24 25 29 30 29
5 3 7 11 3 4 2 6 2 1 2 1 3 3 4 1 3 3 4 4 10 11 7 2 2 4 6 5 15 17 12 5 3 6 3 3 2 15 18 19 26 31 32 31 30
5 3 4 6 2 2 3 1 2 2 2 3 3 4 2 2 2 3 4 6 10 8 10 5 3 5 9 2 3 10 22 16 2 3 11 3 6 15 24 24 35 33 34 30 31
1 2 3 5 6 5 3 1 3 1 1 2 1 1 3 3 1 4 4 4 14 9 8 2 1 1 2 6 4 16 20 19 10 3 5 5 10 20 22 23 31 37 33 30 31
1 1 2 2 3 4 2 3 0 2 3 3 1 2 3 1 4 3 4 5 3 12 9 3 2 2 4 3 1 13 14 19 17 10 5 8 8 15 16 17 24 28 30 28 35
3 5 4 4 3 3 1 3 2 2 5 3 4 3 4 4 6 4 2 3 3 9 6 4 3 3 4 2 2 8 18 15 13 10 5 9 5 14 20 24 32 31 30 30 32
9 6 2 2 3 3 3 5 4 2 3 4 4 4 1 7 11 11 12 13 7 4 4 7 3 4 5 9 4 8 16 10 7 12 3 6 6 12 13 19 25 27 28 33 35
Wind_Direction
19 14 9 1 358 1 353 348 345 344 338 335 334 339 344 344 348 131 23 11 352 334 330 326 325 325 328 308 252 233 7 242 249 194 259 337 6 320 308 278 289 286 295 302 300
12 4 360 360 357 356 349 343 344 340 334 334 336 339 343 344 114 102 23 9 347 336 333 335 336 334 323 281 230 172 195 226 215 215 250 305 300 299 301 287 281 291 298 269 291
359 0 355 357 353 350 344 342 341 336 332 332 335 343 344 8 128 46 23 2 343 332 333 326 320 320 262 267 224 216 223 218 233 252 293 281 284 278 238 265 258 274 283 282 294
357 355 352 352 349 347 342 341 340 332 336 340 342 343 351 117 155 25 7 351 334 318 320 317 296 313 254 241 247 286 253 250 263 278 301 260 263 245 248 255 270 279 283 286 279
353 352 350 346 348 347 342 338 337 332 344 345 349 355 63 114 64 6 331 340 327 312 308 303 285 263 240 245 285 249 256 264 280 282 273 283 262 260 259 266 271 276 274 275 271
349 348 346 345 346 344 342 338 336 338 351 357 349 10 129 90 9 352 334 328 330 317 315 300 264 255 275 231 206 251 254 271 284 277 272 267 264 238 270 273 273 267 268 268 270
345 347 344 344 344 344 343 339 337 346 356 348 0 351 114 72 8 347 330 329 334 311 298 294 290 249 231 273 258 289 289 275 266 265 265 266 270 228 267 277 265 268 265 267 272
344 344 341 343 344 344 344 339 340 349 355 348 14 35 103 8 341 346 344 348 332 317 298 288 266 258 246 265 304 272 243 299 282 194 241 196 272 270 279 267 262 266 267 269 274
340 341 342 342 342 344 346 346 348 353 347 46 18 78 70 350 341 348 351 344 329 308 314 286 267 232 245 264 291 216 273 268 298 241 239 200 286 270 288 266 257 263 275 285 285
337 341 340 342 342 344 350 351 350 14 13 25 18 30 22 338 337 357 342 342 328 317 318 196 260 283 244 150 278 291 289 284 282 244 293 274 270 273 259 253 254 263 272 276 275
335 342 342 341 344 346 353 4 1 342 34 52 13 307 320 341 346 354 347 347 342 299 330 332 279 248 270 238 265 278 275 278 280 287 283 270 270 268 262 252 257 261 261 262 267
335 340 342 342 342 349 352 34 22 323 327 11 350 340 348 337 321 348 343 352 347 301 326 324 256 291 287 296 300 292 280 278 281 250 303 283 274 278 273 255 252 249 257 259 265
333 336 342 343 341 351 3 17 8 5 351 355 10 349 346 336 340 348 349 336 287 308 320 263 276 313 329 322 333 317 276 276 284 317 254 277 283 281 304 324 299 279 282 269 263
330 336 342 347 352 351 2 356 3 54 73 322 341 6 353 346 39 355 352 338 325 307 325 276 324 335 327 299 339 300 241 303 293 306 275 61 291 10 15 17 5 346 332 327 325
329 335 342 350 348 354 348 346 11 56 38 320 338 359 352 55 322 337 352 339 301 304 64 277 326 339 323 329 324 255 300 292 285 274 281 253 226 17 14 348 340 331 321 314 313
326 332 341 344 348 348 345 350 56 41 306 348 6 353 358 8 2 318 347 5 297 319 238 265 293 226 259 302 305 322 305 309 328 233 213 300 202 57 11 333 324 320 311 304 302
323 330 335 340 343 345 342 355 37 89 350 319 338 358 333 330 329 5 332 13 31 355 357 329 328 317 315 333 333 348 347 337 1 13 230 343 247 70 354 349 329 314 305 294 287
320 328 329 341 343 343 342 48 60 231 259 349 351 323 14 358 344 336 354 353 27 351 326 12 331 13 322 2 315 335 345 344 312 326 318 310 352 134 3 332 341 339 312 292 324
320 326 325 348 344 342 343 50 196 195 270 332 330 35 326 351 349 360 4 333 14 359 6 341 289 307 308 342 23 340 341 303 254 239 249 344 2 229 345 348 347 342 40 66 67
326 326 326 348 343 346 65 161 171 205 350 58 75 112 330 315 354 7 340 331 339 350 355 283 300 330 342 17 51 341 345 1 349 349 342 64 50 343 343 342 333 341 34 54 63
329 325 335 346 349 27 109 211 225 233 145 108 187 296 246 295 302 311 286 294 1 324 324 279 140 305 4 15 10 8 12 345 276 305 345 344 48 356 341 338 329 338 25 38 50
327 1 335 347 12 53 112 182 176 172 122 118 149 192 201 319 293 287 291 223 359 343 334 317 219 292 245 205 51 32 7 340 72 344 349 318 65 10 354 336 344 353 15 34 46
313 290 336 359 100 4 303 263 220 153 157 175 201 179 113 216 5 242 289 285 347 357 348 336 1 338 348 348 28 17 14 17 106 25 17 23 319 352 353 348 359 2 10 27 44
312 19 16 63 78 114 146 307 321 191 164 196 186 103 67 349 254 291 293 301 335 357 2 84 360 53 6 303 321 8 20 25 37 58 323 44 325 350 354 356 351 357 7 25 39
142 136 136 286 29 96 112 152 255 38 192 191 124 200 151 306 339 273 273 296 319 1 1 61 29 21 257 233 333 29 22 24 39 13 46 331 16 356 360 349 349 356 10 26 39
187 155 132 105 118 145 247 216 199 257 163 229 151 223 174 195 179 255 335 356 346 330 359 7 322 53 298 329 227 37 29 29 39 14 16 345 30 354 4 9 9 4 12 27 37
195 182 175 151 122 105 212 170 195 179 183 168 171 142 171 239 244 260 275 277 279 313 324 358 341 23 325 341 73 15 16 22 44 38 304 22 315 332 12 14 12 9 20 28 41